Location: Caltech
(34.1382°N, 118.1253°W)
Time: 20:48:56
(UTC-07:00)

Iridium 65 - Visible Passes

Search period start: 03 September 2015 00:00
Search period end: 13 September 2015 00:00
Orbit: 776 x 779 km, 86.4° (Epoch: 02 September)

Date Brightness Start Highest point End Pass type
(mag) Time Alt. Az. Time Alt. Az. Time Alt. Az.
03 Sep 8.4 23:29:56 10° NNW 23:30:17 12° NNW 23:30:17 12° NNW visible
04 Sep 8.1 22:56:05 10° N 22:56:52 15° N 22:56:52 15° N visible
05 Sep 7.9 22:22:36 10° N 22:23:27 15° N 22:23:27 15° N visible
06 Sep 7.9 21:49:32 10° NNE 21:50:03 12° NNE 21:50:03 12° NNE visible
06 Sep 8.6 23:30:30 10° NNW 23:30:30 10° NNW 23:30:30 10° NNW visible
07 Sep 8.2 22:56:20 10° NNW 22:57:06 14° NNW 22:57:06 14° NNW visible
08 Sep 7.9 22:22:37 10° N 22:23:43 17° N 22:23:43 17° N visible
09 Sep 7.7 21:49:18 10° NNE 21:50:21 16° NNE 21:50:21 16° NNE visible
10 Sep 7.8 21:16:27 10° NNE 21:16:59 12° NNE 21:16:59 12° NNE visible
10 Sep 8.3 22:56:44 10° NNW 22:57:26 13° NNW 22:57:26 13° NNW visible
11 Sep 7.9 22:22:46 10° N 22:24:05 18° NNW 22:24:05 18° NNW visible
12 Sep 7.5 21:49:12 10° N 21:50:45 20° N 21:50:45 20° N visible
